GW5841 Weather Reports


Display with metric or nautical units.
time (UTC)temp
F
wind
direction
speed
MPH
gust
MPH
rain 1hr
in
rain 24hr
in
rain mn
in
humidity
%
barometer
mb
20260504150653 53 307 10.0 23.0 0.00 0.00 0.00 56 1001.3
20260504150150 53 319 8.0 22.0 0.00 0.00 0.00 56 1001.3
20260504141119 55 274 9.0 17.0 0.00 0.00 0.00 53 1000.4
20260504140615 55 241 6.0 18.0 0.00 0.00 0.00 53 1000.4
20260504140111 55 278 10.0 14.0 0.00 0.00 0.00 53 1000.5
20260504130539 52 180 4.0 9.0 0.00 0.00 0.00 60 1000.9
20260504110427 39 54 4.0 6.0 0.00 0.00 0.00 93 1002.2
20260504100343 37 71 4.0 6.0 0.00 0.00 0.00 91 1002.2
20260504081737 35 82 3.0 4.0 0.00 0.00 0.00 94 1002.5
20260504081233 35 101 1.0 5.0 0.00 0.00 0.00 93 1002.4
20260504080730 35 104 3.0 3.0 0.00 0.00 0.00 94 1002.4
20260504080226 35 65 2.0 3.0 0.00 0.00 0.00 93 1002.3
20260504070154 37 148 2.0 3.0 0.00 0.00 0.00 86 1002.7
20260504060119 30 75 1.0 2.0 0.00 0.00 0.00 92 1002.4
20260504050548 29 65 1.0 2.0 0.00 0.00 0.00 92 1002.5
20260504045541 29 44 1.0 2.0 0.00 0.00 0.00 93 1002.7
20260504045037 28 74 1.0 3.0 0.00 0.00 0.00 93 1002.8
20260504044534 28 110 1.0 2.0 0.00 0.00 0.00 93 1002.7
20260504044031 28 354 0.0 1.0 0.00 0.00 0.00 93 1002.7
20260504043528 28 48 0.0 1.0 0.00 0.00 0.00 93 1002.7
20260504043026 28 57 0.0 1.0 0.00 0.00 0.00 93 1002.8
20260504042522 27 53 1.0 2.0 0.00 0.00 0.00 93 1002.8
20260504042020 27 22 0.0 1.0 0.00 0.00 0.00 93 1003.1
20260504041515 28 41 2.0 2.0 0.00 0.00 0.00 93 1002.8
20260504041011 28 74 2.0 2.0 0.00 0.00 0.00 92 1003.0
20260504040509 28 26 1.0 1.0 0.00 0.00 0.00 92 1003.0
20260504040005 28 93 0.0 1.0 0.00 0.00 0.00 92 1002.8
20260504035503 28 352 0.0 2.0 0.00 0.00 0.00 92 1002.8
20260504034959 28 16 0.0 2.0 0.00 0.00 0.00 92 1002.8
20260504034457 28 76 0.0 2.0 0.00 0.00 0.00 92 1002.8
20260504033953 28 34 2.0 2.0 0.00 0.00 0.00 92 1002.9
20260504033451 28 52 1.0 2.0 0.00 0.00 0.00 92 1003.0
20260504032948 28 353 0.0 1.0 0.00 0.00 0.00 92 1002.9
20260504032445 28 16 1.0 2.0 0.00 0.00 0.00 91 1002.6
20260504031942 28 55 0.0 2.0 0.00 0.00 0.00 91 1002.9
20260504031439 28 95 1.0 2.0 0.00 0.00 0.00 91 1002.9
20260504030935 28 60 0.0 2.0 0.00 0.00 0.00 91 1002.8
20260504030432 28 315 0.0 2.0 0.00 0.00 0.00 91 1003.0
20260504025928 28 51 1.0 1.0 0.00 0.00 0.00 90 1002.9
20260504025425 29 333 0.0 2.0 0.00 0.00 0.00 90 1003.0
20260504024922 29 20 1.0 2.0 0.00 0.00 0.00 90 1003.0
20260504024419 29 70 2.0 2.0 0.00 0.00 0.00 90 1002.8
20260504023916 29 308 1.0 2.0 0.00 0.00 0.00 90 1002.9
20260504023413 29 336 0.0 1.0 0.00 0.00 0.00 90 1003.0
20260504022908 29 305 1.0 1.0 0.00 0.00 0.00 89 1002.9
20260504022405 29 57 2.0 2.0 0.00 0.00 0.00 89 1003.0
20260504021902 29 30 1.0 2.0 0.00 0.00 0.00 88 1002.8
20260504021359 30 22 0.0 0.0 0.00 0.00 0.00 88 1003.0
20260504020856 30 329 0.0 1.0 0.00 0.00 0.00 87 1003.1
20260504020353 31 48 0.0 1.0 0.00 0.00 0.00 87 1003.1
20260504015849 31 35 1.0 2.0 0.00 0.00 0.00 87 1003.1
20260504015345 31 329 2.0 2.0 0.00 0.00 0.00 86 1003.2
20260504014841 31 24 1.0 2.0 0.00 0.00 0.00 87 1003.0
20260504014337 31 291 0.0 3.0 0.00 0.00 0.00 86 1003.1
20260504013835 31 272 2.0 2.0 0.00 0.00 0.00 85 1003.0
20260504013333 32 331 1.0 2.0 0.00 0.00 0.00 84 1002.9
20260504012829 32 0 0.0 2.0 0.00 0.00 0.00 83 1003.0
20260504012327 33 299 0.0 2.0 0.00 0.00 0.00 82 1002.8
20260504011824 33 25 0.0 2.0 0.00 0.00 0.00 81 1002.7
20260504011321 33 353 0.0 2.0 0.00 0.00 0.00 81 1002.7
20260504010817 34 40 2.0 2.0 0.00 0.00 0.00 80 1002.7
20260504010312 34 320 1.0 2.0 0.00 0.00 0.00 81 1002.7
20260504005809 34 312 0.0 1.0 0.00 0.00 0.00 81 1002.7
20260504005306 34 26 0.0 2.0 0.00 0.00 0.00 80 1002.6
20260504004804 34 338 0.0 2.0 0.00 0.00 0.00 80 1002.7
20260504004301 35 330 0.0 1.0 0.00 0.00 0.00 79 1002.5
20260504003757 35 39 2.0 2.0 0.00 0.00 0.00 78 1002.4
20260504003254 35 345 0.0 1.0 0.00 0.00 0.00 78 1002.4
20260504002751 36 38 0.0 2.0 0.00 0.00 0.00 76 1002.5
20260504002248 37 287 0.0 1.0 0.00 0.00 0.00 75 1002.5
20260504001746 37 154 0.0 2.0 0.00 0.00 0.00 70 1002.4
20260504001243 38 339 0.0 1.0 0.00 0.00 0.00 72 1002.5
20260504000739 39 157 0.0 2.0 0.00 0.00 0.00 69 1002.3
20260504000236 39 182 1.0 2.0 0.00 0.00 0.00 66 1002.4
20260503235735 39 335 0.0 1.0 0.00 0.00 0.00 70 1002.3
20260503235231 40 337 0.0 0.0 0.00 0.00 0.00 67 1002.6
20260503234729 41 315 0.0 2.0 0.00 0.00 0.00 65 1002.1
20260503234227 42 269 0.0 2.0 0.00 0.00 0.00 59 1002.2
20260503233724 43 277 3.0 4.0 0.00 0.00 0.00 52 1002.0
20260503233219 44 156 1.0 4.0 0.00 0.00 0.00 52 1002.3
20260503232716 44 278 3.0 5.0 0.00 0.00 0.00 50 1002.1
20260503232213 45 271 5.0 6.0 0.00 0.00 0.00 47 1002.4
20260503231712 45 279 8.0 8.0 0.00 0.00 0.00 47 1002.2
20260503231208 46 279 4.0 5.0 0.00 0.00 0.00 47 1002.2
20260503230704 46 238 2.0 4.0 0.00 0.00 0.00 45 1002.0
20260503230202 46 261 6.0 11.0 0.00 0.00 0.00 45 1002.0
20260503225659 47 285 6.0 10.0 0.00 0.00 0.00 46 1002.0
20260503225154 46 268 4.0 7.0 0.00 0.00 0.00 46 1002.2
20260503224652 46 231 4.0 6.0 0.00 0.00 0.00 47 1002.3
20260503224149 46 249 4.0 4.0 0.00 0.00 0.00 47 1002.1
20260503223647 46 300 2.0 12.0 0.00 0.00 0.00 45 1002.0
20260503223143 48 264 6.0 10.0 0.00 0.00 0.00 44 1002.1
20260503222640 47 272 4.0 7.0 0.00 0.00 0.00 46 1001.9
20260503222138 46 281 9.0 11.0 0.00 0.00 0.00 47 1001.9
20260503221636 46 298 5.0 14.0 0.00 0.00 0.00 47 1002.0
20260503221133 46 269 4.0 4.0 0.00 0.00 0.00 48 1001.9
20260503220630 46 269 6.0 7.0 0.00 0.00 0.00 48 1001.9
20260503220126 46 299 4.0 4.0 0.00 0.00 0.00 49 1001.9
20260503215623 46 54 2.0 10.0 0.00 0.00 0.00 49 1001.9
20260503215120 45 357 8.0 16.0 0.00 0.00 0.00 49 1001.9
20260503214619 45 318 7.0 12.0 0.00 0.00 0.00 49 1001.9
20260503214114 46 324 6.0 13.0 0.00 0.00 0.00 48 1002.0
20260503213609 46 264 3.0 5.0 0.00 0.00 0.00 48 1001.9
20260503213104 46 275 5.0 8.0 0.00 0.00 0.00 49 1002.2
20260503212602 46 335 6.0 11.0 0.00 0.00 0.00 47 1002.2
20260503212059 46 5 6.0 15.0 0.00 0.00 0.00 49 1002.0
20260503211556 45 278 2.0 8.0 0.00 0.00 0.00 50 1002.2
20260503211051 45 262 5.0 11.0 0.00 0.00 0.00 50 1002.2
20260503210549 45 303 11.0 14.0 0.00 0.00 0.00 50 1002.1
20260503210044 45 279 6.0 9.0 0.00 0.00 0.00 52 1001.9
20260503205541 44 276 5.0 18.0 0.00 0.00 0.00 51 1002.1
20260503205037 45 281 13.0 17.0 0.00 0.00 0.00 50 1002.1
20260503204534 45 252 5.0 13.0 0.00 0.00 0.00 51 1002.0
20260503204031 45 278 9.0 18.0 0.00 0.00 0.00 49 1001.8
20260503203528 46 222 14.0 22.0 0.00 0.00 0.00 48 1001.9
20260503203025 46 271 8.0 11.0 0.00 0.00 0.00 50 1001.8
20260503202523 45 282 4.0 15.0 0.00 0.00 0.00 50 1001.8
20260503202021 45 256 10.0 16.0 0.00 0.00 0.00 49 1002.0
20260503201519 45 266 10.0 12.0 0.00 0.00 0.00 49 1001.7
20260503201016 45 279 10.0 12.0 0.00 0.00 0.00 48 1001.6
20260503200512 45 274 7.0 15.0 0.00 0.00 0.00 48 1001.9
20260503200009 45 264 8.0 21.0 0.00 0.00 0.00 48 1002.1
20260503195506 46 241 9.0 19.0 0.00 0.00 0.00 46 1001.8
20260503195002 47 243 4.0 5.0 0.00 0.00 0.00 47 1001.7
20260503194500 47 281 6.0 14.0 0.00 0.00 0.00 46 1001.8
20260503193955 46 298 8.0 19.0 0.00 0.00 0.00 45 1001.8
20260503193451 46 265 9.0 13.0 0.00 0.00 0.00 47 1002.0
20260503192946 46 279 5.0 8.0 0.00 0.00 0.00 46 1001.8
20260503192443 46 319 13.0 19.0 0.00 0.00 0.00 44 1002.0
20260503191938 46 304 9.0 18.0 0.00 0.00 0.00 44 1002.0
20260503191436 46 330 11.0 17.0 0.00 0.00 0.00 45 1002.1
20260503190932 45 274 3.0 13.0 0.00 0.00 0.00 49 1002.0
20260503190430 45 335 6.0 11.0 0.00 0.00 0.00 47 1002.1
20260503185927 46 319 7.0 17.0 0.00 0.00 0.00 47 1002.2
20260503185423 46 324 1.0 12.0 0.00 0.00 0.00 47 1002.0
20260503184922 46 273 7.0 16.0 0.00 0.00 0.00 48 1002.2
20260503184419 46 292 11.0 13.0 0.00 0.00 0.00 46 1001.9
20260503183916 46 308 7.0 12.0 0.00 0.00 0.00 48 1002.0
20260503183412 45 275 10.0 18.0 0.00 0.00 0.00 48 1002.0
20260503182909 45 308 13.0 19.0 0.00 0.00 0.00 46 1001.9
20260503182409 46 251 4.0 18.0 0.00 0.00 0.00 47 1001.9
20260503181905 46 314 15.0 22.0 0.00 0.00 0.00 41 1002.1
20260503181357 46 248 5.0 18.0 0.00 0.00 0.00 39 1001.8
20260503180853 47 325 6.0 16.0 0.00 0.00 0.00 41 1002.0
20260503180351 47 351 3.0 15.0 0.00 0.00 0.00 43 1002.0
20260503175847 47 254 6.0 15.0 0.00 0.00 0.00 42 1001.9
20260503175345 47 299 3.0 18.0 0.00 0.00 0.00 45 1002.2
20260503174840 46 14 3.0 16.0 0.00 0.00 0.00 45 1002.2
20260503174339 47 252 4.0 10.0 0.00 0.00 0.00 44 1002.0
20260503173834 47 349 8.0 12.0 0.00 0.00 0.00 45 1002.0
20260503173330 46 356 10.0 15.0 0.00 0.00 0.00 45 1002.3
20260503172827 45 293 6.0 21.0 0.00 0.00 0.00 45 1002.3
20260503172325 45 316 9.0 13.0 0.00 0.00 0.00 47 1002.2
20260503171821 46 300 11.0 14.0 0.00 0.00 0.00 48 1002.3
20260503171318 45 322 8.0 15.0 0.00 0.00 0.00 48 1002.3
20260503170815 45 42 2.0 14.0 0.00 0.00 0.00 48 1002.4
20260503170311 45 289 8.0 20.0 0.00 0.00 0.00 47 1002.4